McCook, NE

12:42 AM CDT on June 23, 2017 (GMT -0500)
McCook Municipal

Weather History for KMCK - March, 2011

Change the Weather History Date:

Saturday, March 5, 2011

  Actual Average Record
Temperature  
Mean Temperature 32 °F 36 °F  
Max Temperature 50 °F 50 °F 82 °F (1910)
Min Temperature 14 °F 22 °F -6 °F (1989)
Degree Days  
Heating Degree Days 34    
Moisture  
Dew Point 20 °F    
Average Humidity 67    
Maximum Humidity 92    
Minimum Humidity 39    
Precipitation  
Precipitation 0.00 in 0.03 in 0.89 in (1983)
Month to date precipitation 0.10 0.17  
Year to date precipitation 0.55 1.30  
Sea Level Pressure  
Sea Level Pressure 30.35 in    
Wind  
Wind Speed 6 mph (SSE)    
Max Wind Speed 14 mph    
Max Gust Speed 30 mph    
Visibility 10 miles    
Events      
T = Trace of Precipitation, MM = Missing Value Source: NWS Daily Summary

Daily Weather History Graph

Daily Weather History Graph

Search for Another Location

Airport or City:

Trip Planner

Search our weather history database for the weather conditions in past years. The results will help you decide how hot, cold, wet, or windy it might be!

Date:

Astronomy

Mar. 05, 2011 Rise Set
Actual Time 7:10 AM CST 6:38 PM CST
Civil Twilight 6:42 AM CST 7:05 PM CST
Nautical Twilight 6:11 AM CST 7:36 PM CST
Astronomical Twilight 5:40 AM CST 8:08 PM CST
Moon 7:08 AM CST (3/5) 7:46 PM CST (3/5)
Length of Visible Light 12h 22m
Length of Day
11h 28m
New Moon, 1% of the Moon is Illuminated
Mar 5
New Moon
Mar 12
First Quarter
Mar 19
Full
Mar 26
Last Quarter
Apr 3
New

Hourly Weather History & Observations

Time (CST) Temp. Windchill Dew Point Humidity Pressure Visibility Wind Dir Wind Speed Gust Speed Precip Events Conditions
12:53 AM 19.0 °F 12.3 °F 17.1 °F 92% 30.45 in 10.0 mi WNW 4.6 mph - N/A   Clear
1:53 AM 19.0 °F 11.1 °F 16.0 °F 88% 30.45 in 10.0 mi WNW 5.8 mph - N/A   Clear
2:53 AM 17.1 °F 11.7 °F 14.0 °F 88% 30.45 in 10.0 mi NW 3.5 mph - N/A   Clear
3:53 AM 17.1 °F 11.7 °F 14.0 °F 88% 30.44 in 10.0 mi WSW 3.5 mph - N/A   Clear
4:53 AM 17.1 °F 10.0 °F 15.1 °F 92% 30.44 in 10.0 mi SW 4.6 mph - N/A   Clear
5:53 AM 17.1 °F 10.0 °F 14.0 °F 88% 30.45 in 10.0 mi SW 4.6 mph - N/A   Clear
6:53 AM 15.1 °F 9.4 °F 12.9 °F 91% 30.47 in 10.0 mi SW 3.5 mph - N/A   Clear
7:53 AM 16.0 °F - 12.9 °F 88% 30.47 in 10.0 mi Calm Calm - N/A   Clear
8:53 AM 21.9 °F 17.2 °F 19.0 °F 89% 30.48 in 10.0 mi East 3.5 mph - N/A   Clear
9:53 AM 26.1 °F - 21.0 °F 81% 30.48 in 10.0 mi Calm Calm - N/A   Clear
10:53 AM 32.0 °F 26.4 °F 23.0 °F 69% 30.45 in 10.0 mi East 5.8 mph - N/A   Clear
11:53 AM 37.0 °F 32.4 °F 24.1 °F 59% 30.43 in 10.0 mi East 5.8 mph - N/A   Clear
12:53 PM 42.1 °F 38.4 °F 25.0 °F 51% 30.38 in 10.0 mi Variable 5.8 mph - N/A   Clear
1:53 PM 46.0 °F 40.6 °F 25.0 °F 44% 30.32 in 10.0 mi SSE 11.5 mph - N/A   Clear
2:53 PM 48.9 °F - 25.0 °F 39% 30.30 in 10.0 mi SSE 10.4 mph 29.9 mph N/A   Clear
3:53 PM 48.0 °F - 26.1 °F 42% 30.27 in 10.0 mi SSE 11.5 mph - N/A   Clear
4:53 PM 46.9 °F - 26.1 °F 44% 30.25 in 10.0 mi SE 13.8 mph - N/A   Clear
5:53 PM 44.6 °F 38.1 °F 26.6 °F 49% 30.16 in 10.0 mi SE 13.8 mph - N/A   Mostly Cloudy
6:53 PM 41.0 °F 34.7 °F 26.1 °F 55% 30.23 in 10.0 mi ESE 10.4 mph - N/A   Clear
7:53 PM 37.9 °F 31.5 °F 21.9 °F 53% 30.24 in 10.0 mi ESE 9.2 mph - N/A   Clear
8:53 PM 36.0 °F 29.6 °F 21.0 °F 55% 30.22 in 10.0 mi ESE 8.1 mph - N/A   Clear
9:53 PM 35.1 °F 29.3 °F 19.9 °F 54% 30.20 in 10.0 mi SE 6.9 mph - N/A   Clear
10:53 PM 35.1 °F 28.6 °F 19.0 °F 52% 30.19 in 10.0 mi SE 8.1 mph - N/A   Mostly Cloudy
11:53 PM 35.1 °F 26.4 °F 17.1 °F 48% 30.16 in 10.0 mi SSE 12.7 mph - N/A   Overcast